Simultaneous Nadir Overpasses (SNOs) Predictions

Prediction of SNOs between GOES-15 and METOP-B Satellite Orbit:

Table of predicted SNOs for the next 14.0 days since TLE Epoch: 9/23/2023
Index Date Time (GOES-15) GOES-15 Lat,Lon METOP-B Lat,Lon Distance(km) Time Diff (sec)
1 09/24/2023 14:44:33 0.30, 103.91 -0.25, 101.33 292.77 80
2 09/25/2023 14:21:16 0.28, 102.86 1.06, 106.28 390.33 80
3 09/27/2023 02:40:14 -0.29, 101.14 -0.41, 101.64 56.52 80
4 09/28/2023 15:01:59 0.31, 99.62 -0.29, 96.96 302.81 80
5 09/29/2023 14:38:42 0.29, 98.57 1.03, 101.91 381.24 80
6 10/01/2023 02:57:40 -0.31, 96.83 -0.39, 97.27 48.86 80
7 10/02/2023 15:19:25 0.32, 95.30 -0.30, 92.59 309.01 80
8 10/03/2023 14:56:09 0.30, 94.24 1.02, 97.54 375.58 80
9 10/05/2023 03:15:06 -0.31, 92.51 -0.39, 92.89 43.77 80
10 10/06/2023 15:36:51 0.32, 90.97 -0.28, 88.22 312.93 80
